Location: Aslane?ti
(46.3000°N, 22.7500°E)
Time: 01:27:11
(UTC+00:00)

Daily predictions for brighter satellites

Satellite Brightness Start Highest point End
(mag) Time Altitude Azimuth Time Altitude Azimuth Time Altitude Azimuth
ATLAS 5 CENTAUR R/B 4.5 00:16:04 14° N 00:16:04 14° N 00:17:13 10° NNE
ADEOS II 3.5 00:34:18 10° NNE 00:37:23 34° NE 00:37:23 34° NE
USA 234 4.2 00:34:31 10° E 00:40:35 42° NNE 00:43:28 28° NNW
IDEFIX/ARIANE 42P 4.4 00:37:11 10° NE 00:41:23 24° E 00:41:36 24° E
SJ 16-02 4.3 00:39:07 10° N 00:39:21 11° N 00:39:21 11° N
Cosmos 1238 Rocket 4.4 00:48:14 10° N 00:54:28 57° ENE 00:54:28 57° ENE
Cosmos 1697 Rocket 3.9 00:59:13 36° N 00:59:13 36° N 01:02:44 10° NNE
Cosmos 1980 Rocket 2.8 01:05:33 51° NNE 01:05:33 51° NNE 01:09:46 10° NNE
Cosmos 2263 Rocket 3.4 01:00:42 10° NNW 01:03:49 33° NNW 01:03:49 33° NNW
ASTEX 1 4.2 01:07:42 10° NNE 01:11:56 49° ENE 01:11:56 49° ENE
Cosmos 2322 Rocket 3.6 01:12:30 28° SE 01:13:45 31° ESE 01:18:42 10° NE
Cosmos 1898 Rocket 4.5 01:11:13 10° NNW 01:16:17 45° ENE 01:21:21 10° SE
Lacrosse 5 3.1 01:22:28 35° N 01:22:28 35° N 01:26:28 10° NE
IRS-1C 4.3 01:19:20 10° NNE 01:23:58 68° NNE 01:23:58 68° NNE
SL-16 R/B 2.9 01:24:45 43° SE 01:25:35 47° ESE 01:31:00 10° NE
Cosmos 921 Rocket 4.4 01:28:18 34° NNE 01:28:18 34° NNE 01:30:47 10° NNE
Resurs 1-4 Rocket 3.9 01:24:40 10° N 01:26:57 20° NNW 01:26:57 20° NNW
Cosmos 1812 4.4 01:33:08 32° NE 01:33:08 32° NE 01:35:28 10° NNE
USA 307 4.5 01:32:42 31° NNE 01:32:42 31° NNE 01:35:45 10° NE
USA 308 4.4 01:35:56 31° N 01:35:56 31° N 01:39:08 10° NE
CZ-2D R/B 3.9 01:31:20 10° N 01:33:36 19° NNW 01:33:36 19° NNW
Cosmos 1937 Rocket 4.4 01:30:57 10° NNW 01:35:57 47° ENE 01:40:53 10° SE
NOSS 3-4 (A) 4.2 01:36:26 10° NW 01:43:19 64° NE 01:50:57 10° SE
NOSS 3-4 (C) 4.2 01:36:32 10° NW 01:43:25 63° NE 01:51:03 10° SE
CZ-4C R/B 4.5 01:46:23 37° ENE 01:46:23 37° ENE 01:49:23 10° N
Cosmos 1763 Rocket 3.8 01:45:12 52° SSE 01:46:14 63° ESE 01:51:29 10° NNE
USA 267 3.2 01:41:17 10° NE 01:47:51 75° SE 01:49:37 51° SSW
Cosmos 1536 4.4 01:44:50 10° N 01:48:37 36° ENE 01:52:22 10° SE
ARIANE 5 R/B 2.4 01:45:15 10° N 01:50:05 71° NW 01:50:05 71° NW
CZ-2D R/B 3.7 01:47:03 10° NNE 01:50:45 66° NNE 01:50:45 66° NNE
ADEOS Rocket 4.4 01:45:30 10° SE 01:51:25 38° ENE 01:56:50 10° N
NOSS 3-3 (A) 3.9 01:51:32 60° W 01:52:24 67° NW 01:59:07 10° NE
NOSS 3-3 (C) 3.9 01:51:39 60° W 01:52:31 68° NW 01:59:12 10° NE
Cosmos 1707 Rocket 4.3 01:55:16 36° SE 01:56:37 51° E 02:00:52 10° NNE
Meteor 1-5 Rocket 3.9 01:53:28 10° NNW 01:58:49 74° W 02:00:06 52° SSW
Cosmos 1934 Rocket 4.4 01:54:02 10° NNW 01:58:47 41° WNW 01:58:47 41° WNW
ATLAS 5 CENTAUR R/B 4.4 01:58:40 10° NNW 02:00:14 11° N 02:01:52 10° NNE
Cosmos 540 Rocket 4.4 01:59:02 21° SSE 02:02:10 44° ESE 02:07:05 10° NNE
MSX 3.8 01:56:46 10° NNE 02:02:36 80° ESE 02:05:30 31° S
Gbstr 26 Del rocket 4.5 02:03:39 37° W 02:06:38 55° SW 02:13:46 10° SSE
ATLAS 2AS CENTAUR R/B 3.0 01:59:36 10° NW 02:07:10 72° NE 02:14:05 10° SE
ERS-2 3.7 02:04:10 10° SE 02:07:32 35° ENE 02:10:55 10° N
Cosmos 44 Rocket 3.9 02:06:03 36° S 02:07:36 51° ESE 02:12:18 10° NE
CZ-4B R/B 4.3 02:05:33 10° ESE 02:07:48 18° ENE 02:10:06 10° NNE
IRIDIUM 106 4.2 02:03:03 10° N 02:08:18 86° W 02:11:35 23° S
Cosmos 44 4.4 02:08:32 28° NW 02:08:32 28° NW 02:12:30 10° NNE
Cosmos 990 Rocket 3.9 02:05:12 10° NNW 02:10:20 60° WSW 02:15:27 10° S
Cosmos 1733 Rocket 4.0 02:06:17 10° N 02:10:30 47° ENE 02:14:40 10° SSE
Meteor 1-10 Rocket 4.2 02:09:13 41° SSW 02:11:22 75° WNW 02:17:18 10° N
Meteor 2-6 Rocket 4.3 02:10:06 49° SW 02:11:25 61° WNW 02:17:15 10° N
ADEOS II 3.4 02:14:44 10° N 02:18:20 23° NW 02:18:20 23° NW
Landsat 5 3.5 02:14:31 10° SSE 02:19:02 86° WSW 02:23:30 10° NNW
Cosmos 468 Rocket 4.0 02:19:42 46° WSW 02:21:00 61° WNW 02:26:14 10° NNE
IDEFIX/ARIANE 42P 2.8 02:16:09 10° N 02:21:15 51° WNW 02:22:24 43° WSW
Cosmos 1570 Rocket 4.4 02:18:01 20° S 02:21:45 65° ESE 02:27:04 10° NNE
Cosmos 967 Rocket 4.4 02:19:11 33° SW 02:22:20 88° NW 02:28:47 10° NE
SL-4 R/B 2.2 02:21:54 55° WSW 02:22:53 82° NNW 02:27:40 10° ENE
USA 234 3.2 02:16:40 10° ESE 02:23:14 87° NNE 02:29:48 10° NW
CZ-2C R/B 2.6 02:19:33 10° N 02:23:21 66° WNW 02:23:31 65° W
PSLV R/B 3.9 02:21:12 10° NNE 02:25:23 62° ESE 02:28:45 15° S
CZ-4C R/B 3.9 02:20:16 10° NNW 02:26:56 45° NE 02:34:38 10° ESE
USA 276 2.2 02:30:55 67° NNW 02:31:12 73° NNE 02:34:24 10° ESE
Cosmos 1862 Rocket 4.1 02:27:11 10° S 02:31:27 58° E 02:35:44 10° NNE
CSL-04 DEB 4.5 02:28:10 10° S 02:32:29 66° WSW 02:36:51 10° NNW
Cosmos 2228 Rocket 4.3 02:33:13 25° NW 02:33:13 25° NW 02:36:15 10° NNW
Cosmos 1605 Rocket 4.5 02:28:25 10° NNW 02:34:16 39° W 02:37:19 25° SW
COSMOS 2441 4.4 02:30:03 10° N 02:34:54 59° WNW 02:37:12 30° SW
H-2A R/B 2.1 02:32:29 10° S 02:36:50 59° WSW 02:41:17 10° NNW
ALOS 4.1 02:33:26 10° NNE 02:37:38 32° E 02:41:48 10° SSE
Cosmos 2360 Rocket 2.3 02:33:12 16° SSW 02:37:48 77° ESE 02:43:29 10° NNE
USA 305 4.4 02:36:27 18° NW 02:38:42 28° N 02:42:25 10° ENE
Cosmos 2016 Rocket 4.3 02:36:53 10° N 02:42:59 68° E 02:49:03 10° SSE
USA 306 4.5 02:40:43 17° NW 02:43:10 28° N 02:46:53 10° ENE
CZ-2C R/B 2.5 02:39:31 10° NNE 02:44:43 89° W 02:49:55 10° SSW
Meteor 1-4 Rocket 3.9 02:46:55 23° NW 02:46:55 23° NW 02:49:12 10° NNW
Cosmos 1000 Rocket 4.4 02:40:36 10° S 02:46:47 88° W 02:52:58 10° N
Cosmos 372 Rocket 3.9 02:42:11 10° NNW 02:47:22 88° WSW 02:52:28 10° SSE
ATLAS CENTAUR R/B 3.5 02:37:46 10° NW 02:47:34 52° NNE 02:51:28 10° E
Cosmos 1980 Rocket 3.8 02:47:19 16° WNW 02:48:59 18° NW 02:52:46 10° N
Cosmos 2061 Rocket 4.3 02:43:03 10° N 02:49:31 76° E 02:55:56 10° SSE
Cosmos 1844 Rocket 2.6 02:48:51 10° NNW 02:54:31 81° WSW 03:00:11 10° SSE
Cosmos 2322 Rocket 2.6 02:54:20 23° WSW 02:57:36 46° NW 03:03:06 10° NNE
Cosmos 1898 Rocket 4.4 02:53:46 10° NW 02:58:06 26° W 03:02:27 10° SSW
Cosmos 1484 Rocket 3.8 02:54:12 10° NNE 02:58:07 49° E 03:02:01 10° S
Cosmos 2278 Rocket 4.3 02:54:02 10° N 02:58:55 28° NE 03:03:44 10° ESE
Cosmos 1666 4.0 02:56:45 10° NW 02:59:07 22° WNW 02:59:07 22° WNW
Meteor 1-11 Rocket 4.3 02:56:50 10° NNW 03:01:59 35° W 03:07:01 10° SSW
Cosmos 1844 3.6 02:57:29 10° NNW 03:03:05 84° WSW 03:08:39 10° SSE
X-37B 3.0 03:04:31 11° SSW 03:04:31 11° SSW 03:04:55 10° S
Cosmos 1725 Rocket 4.1 02:59:25 10° N 03:05:39 84° E 03:11:50 10° S
Lacrosse 5 3.6 03:01:48 10° NW 03:05:54 24° N 03:10:02 10° NE
Okean 1 3.4 03:05:21 10° S 03:09:23 82° E 03:13:27 10° N
SL-16 R/B 3.1 03:06:39 19° WSW 03:09:52 32° NW 03:14:57 10° NNE
Meteor 1-27 Rocket 4.2 03:05:04 11° SW 03:10:27 42° WNW 03:16:01 10° N
COSMO-SKYMED 1 3.9 03:06:32 10° SE 03:10:39 43° ENE 03:14:47 10° N
Intercosmos 25 2.9 03:06:57 10° S 03:10:40 86° W 03:13:51 10° N
Meteor 1-31 Rocket 3.5 03:07:13 10° NNE 03:11:01 55° E 03:14:48 10° S
Cosmos 2298 Rocket 4.0 03:06:17 10° NNW 03:11:38 81° WSW 03:16:55 10° SSE
USA 307 4.4 03:08:56 10° NW 03:12:43 30° N 03:16:31 10° ENE
ERBS 4.4 03:12:22 11° NW 03:14:18 17° NNW 03:16:35 10° NNE
Cosmos 2100 Rocket 4.3 03:08:21 10° NNW 03:14:25 46° W 03:20:24 10° SSW
USA 308 4.4 03:12:19 10° NW 03:16:08 31° N 03:19:56 10° ENE
Cosmos 1437 Rocket 2.6 03:12:37 10° SSW 03:16:24 69° WNW 03:20:17 10° N
deb Chang Zheng 4 3.5 03:12:07 10° NNE 03:16:26 86° WNW 03:20:41 10° SSW
Cosmos 1937 Rocket 4.4 03:13:31 10° NW 03:17:35 24° W 03:21:38 10° SSW
Cosmos 1459 Rocket 4.2 03:12:50 10° NNW 03:18:34 45° W 03:24:16 10° SSW
Cosmos 2237 4.5 03:13:42 11° SW 03:18:57 51° WNW 03:24:32 10° NNE
FALCON 9 DEB 4.3 03:20:10 15° WNW 03:22:32 33° NNW 03:25:42 10° NE
Cosmos 841 Rocket 4.0 03:18:30 11° SW 03:23:08 40° WNW 03:28:07 10° N
Cosmos 1782 Rocket 4.2 03:19:53 10° N 03:24:21 61° ENE 03:28:45 10° SSE
Cosmos 1802 Rocket 4.2 03:18:42 10° NNW 03:24:41 51° W 03:30:43 10° SSW
SJ-6F 4.5 03:20:41 10° N 03:24:44 58° WNW 03:28:43 10° SSW
Cosmos 1536 4.2 03:21:49 10° NW 03:24:48 20° W 03:27:45 10° SW
Cosmos 1908 Rocket 3.5 03:21:08 10° NNW 03:25:37 74° W 03:30:04 10° S
Cosmos 2219 Rocket 2.6 03:20:08 10° SSW 03:25:45 69° ESE 03:31:26 10° NNE
Cosmos 2208 Rocket 4.4 03:22:37 10° SW 03:27:37 45° WNW 03:32:35 10° N
Cosmos 1703 Rocket 3.6 03:23:25 10° S 03:27:44 82° E 03:32:07 10° N
ARIANE 5 R/B 4.4 03:26:48 10° NNW 03:28:30 12° NW 03:30:12 10° WNW
Okean 1-7 3.2 03:24:25 10° S 03:28:39 76° E 03:32:55 10° NNE
Cosmos 1814 Rocket 4.4 03:24:17 10° SW 03:29:15 44° WNW 03:34:20 10° N
USA 267 3.8 03:24:26 10° NE 03:30:40 48° NNW 03:36:53 10° W
Cosmos 1125 Rocket 3.5 03:25:44 10° NNW 03:31:03 88° WSW 03:36:18 10° SSE
Meteor 2-4 Rocket 4.4 03:27:23 10° S 03:32:42 56° E 03:37:56 10° NNE
CZ-4B R/B 3.4 03:30:21 10° NNE 03:33:55 56° E 03:37:26 10° S
NOSS 3-4 (A) 4.4 03:27:42 10° NW 03:34:03 35° WSW 03:40:57 10° S
NOSS 3-4 (C) 4.4 03:27:47 10° NW 03:34:10 36° WSW 03:41:05 10° S
Cosmos 2123 Rocket 4.0 03:29:14 10° SSW 03:35:26 63° W 03:41:43 10° N
ADEOS Rocket 3.5 03:30:47 10° SSW 03:36:55 40° W 03:42:33 10° NNW
CZ-4B R/B 4.1 03:34:06 10° N 03:38:30 74° WNW 03:42:57 10° SSW
Cosmos 2150 Rocket 4.2 03:33:52 10° NNW 03:39:10 52° WSW 03:44:22 10° S
CZ-4B R/B 2.2 03:37:05 10° SSW 03:39:52 27° W 03:42:45 10° NW
ERS-2 3.6 03:38:42 10° SW 03:41:13 18° W 03:43:45 10° NW
Cosmos 540 Rocket 4.5 03:39:31 10° WSW 03:43:57 28° WNW 03:48:24 10° N
Cosmos 2237 Rocket 4.1 03:40:29 10° S 03:45:31 34° ESE 03:50:33 10° NE
ATLAS 5 CENTAUR R/B 4.3 03:43:35 10° NNW 03:47:04 17° NNE 03:50:54 10° ENE
Cosmos 1733 Rocket 4.5 03:45:06 10° NW 03:47:54 17° W 03:50:41 10° SW
COSMOS 2428 2.8 03:42:42 10° SSW 03:48:25 88° ESE 03:54:12 10° NNE
Cosmos 44 Rocket 4.3 03:45:13 10° W 03:49:23 29° NW 03:53:40 10° NNE
Cosmos 1544 3.8 03:46:21 10° NNW 03:49:32 30° W 03:52:42 10° SSW
Cosmos 1743 3.9 03:47:46 10° NW 03:50:45 22° W 03:53:44 10° SW
METEOR-M 4.2 03:47:08 10° N 03:52:27 65° WNW 03:57:44 10° SSW
ADEOS 4.0 03:50:37 10° N 03:55:30 41° WNW 04:00:22 10° SW
RESURS DK-1 3.3 03:51:25 10° NNW 03:55:31 54° ENE 03:59:36 10° SE
Meteor PRIRODA 3.6 03:51:53 10° NNE 03:55:34 90° W 03:59:11 10° SSW
Meteor 2-11 Rocket 4.4 03:49:28 10° NNW 03:55:36 73° W 04:01:40 10° S
ATLAS 2AS CENTAUR R/B 3.6 03:51:26 10° NW 03:57:28 29° WSW 04:03:07 10° SSW
Cosmos 2333 Rocket 2.3 03:51:46 10° SW 03:57:30 66° WNW 04:03:16 10° NNE
